Home > Weather > Schaffhausen > Past weeks

Flag for Switzerland Past Weather in Schaffhausen, Schaffhausen, Switzerland — Yesterday and Last 2 Weeks

Now
52 °F

Overcast.


Feels Like: 50 °F
Forecast: 40 / 70 °F
Wind: 5 mph from North

Location: Zurich-Kloten

Current Time: May 24, 2016 at 11:47:31 PM

Latest Report: May 24, 2016 at 11:00 PM


Visibility: 16 mi

Pressure: 29.98 "Hg

Humidity: 84%

Dew Point: 47 °F

Location of SchaffhausenLocation

Past Weather in Schaffhausen — Graph

°F

Schaffhausen Temperature Yesterday

Maximum temperature yesterday: 56 °F (at 12:00 AM)
Minimum temperature yesterday: 44 °F (at 10:00 AM)
Average temperature yesterday: 48 °F

High & Low Weather Summary for the Past Weeks

 TemperatureHumidityPressure
High80 °F (May 22, 3:00 PM)100% (May 20, 3:00 AM)30.23 "Hg (May 20, 3:00 AM)
Low40 °F (May 16, 4:00 AM)30% (May 21, 4:00 PM)29.47 "Hg (May 11, 8:00 PM)
Average54 °F76%29.91 "Hg
* Reported May 9 10:00 PM — May 24 10:00 PM, Schaffhausen, Weather by CustomWeather, © 2016

Note: Actual official high and low records may vary slightly from our data, if they occured in-between our weather recording intervals... More about our weather records

Advertising

Schaffhausen Weather History for the Previous 24 Hours

Scroll right to see more
 ConditionsComfort  
Time TempWeatherWind HumidityBarometerVisibility
10:00 PM
Tue, May 24
53 °FCool.5 mph78%29.97 "HgN/A
9:00 PM54 °FCool.7 mph75%29.96 "HgN/A
8:00 PM57 °FScattered clouds.6 mph63%29.94 "Hg19 mi
7:00 PM57 °FCool.3 mph62%29.95 "HgN/A
6:00 PM58 °FCool.8 mph62%29.95 "HgN/A
5:00 PM58 °FOvercast.6 mph68%29.96 "Hg19 mi
4:00 PM57 °FCool.6 mph65%29.98 "HgN/A
3:00 PM55 °FCool.6 mph72%29.99 "HgN/A
2:00 PM54 °FOvercast.8 mph73%30.00 "Hg12 mi
1:00 PM56 °FCool.9 mph70%30.00 "HgN/A
12:00 PM55 °FCool.6 mph65%30.00 "HgN/A
11:00 AM53 °FOvercast.6 mph76%30.02 "Hg9 mi
10:00 AM51 °FCool.9 mph83%30.03 "HgN/A
9:00 AM51 °FCool.8 mph88%30.03 "HgN/A
8:00 AM49 °FFog.8 mph91%30.03 "Hg6 mi
7:00 AM48 °FCool.7 mph91%30.04 "HgN/A
6:00 AM47 °FCool.8 mph94%30.03 "HgN/A
5:00 AM47 °FLow clouds.6 mph93%30.03 "Hg5 mi
4:00 AM47 °FCool.6 mph93%30.03 "HgN/A
3:00 AM46 °FCool.7 mph93%30.03 "HgN/A
2:00 AM46 °FRain. Overcast.5 mph93%30.04 "Hg5 mi
1:00 AM46 °FCool.5 mph92%30.04 "HgN/A
12:00 AM46 °FCool.3 mph91%30.04 "HgN/A
11:00 PM
Mon, May 23
47 °FRain. Low clouds.2 mph92%30.05 "Hg5 mi
Weather by CustomWeather, © 2016

See weather overviewHow to use our weather pages